Regional Weather Roundup
Issued by NWS New Orleans/Baton Rouge, LA

Home | Current Version | Previous Version | Text Only | Print | Product List | Glossary Off
Versions: 1 2 3 4 5 6 7 8 9 10 11 12 13 14 15 16 17 18 19 20 21 22 23 24 25 26 27 28 29 30 31 32 33 34 35 36 37 38 39 40 41 42 43 44 45 46 47 48 49 50

028
ASUS44 KLIX 151705
RWRLIX
NEW ORLEANS REGIONAL WEATHER ROUNDUP
NATIONAL WEATHER SERVICE NEW ORLEANS LA
1200 PM CDT TUE APR 15 2014

NOTE: "FAIR" INDICATES FEW OR NO CLOUDS BELOW 12,000 FEET WITH NO
      SIGNIFICANT WEATHER AND/OR OBSTRUCTIONS TO VISIBILITY.
      SKY/WX - SKY CONDITION AND SIGNIFICANT WEATHER.
      TMP - AIR TEMPERATURE.     DP    - DEWPOINT TEMPERATURE.
      RH  - RELATIVE HUMIDITY.   PRES  - PRESSURE.
      HI  - HEAT INDEX.          WCI   - WIND CHILL INDEX.

*  THESE STATIONS ARE NOT NWS OR FAA STATIONS AND ARE NOT UNDER
   NWS QUALITY CONTROL.

LAZ038-040-048-061>063-065>067-069-151800-
SOUTHEAST LOUISIANA

CITY           SKY/WX    TMP DP  RH WIND       PRES   REMARKS
N.O. AUDUBON     N/A     54  37  54 MISG        N/A
N.O. INTL ARPT MOSUNNY   53  39  59 N20G31    30.14F
N.O. LAKEFRONT MOSUNNY   53  40  61 N24G37    30.15S
N.O. DOWNTOWN* PTSUNNY   52  36  54 N16G26    30.14F
SLIDELL        MOSUNNY   52  37  56 N16G29    30.13F
BATON ROUGE    SUNNY     55  30  38 N14G26    30.18F
BOOTHVILLE     CLOUDY    50  41  71 NW23G32   30.11R
BELLE CHASSE   PTSUNNY   53  37  54 N20G30    30.12S
BOGALUSA*        N/A    N/A N/A N/A MISG        N/A
GALLIANO*      CLOUDY    53  43  68 N25G31    30.13F
NEW ROADS*       N/A     54  30  40 N23G29    30.20F
GONZALES*        N/A     52  35  51 N16G24    30.16F
HAMMOND*       SUNNY     54  32  43 N18G29    30.17F
HOUMA*         MOSUNNY   54  37  54 N17G23    30.15S
PORT FOURCHON* PTSUNNY   52  41  66 N22G28    30.14F

$$

MSZ070-080>082-151800-
SOUTHERN MISSISSIPPI

CITY           SKY/WX    TMP DP  RH WIND       PRES   REMARKS
MCCOMB         SUNNY     52  28  39 N18G26    30.17F
GULFPORT       MOSUNNY   54  37  52 N22G32    30.10S
BILOXI         MOSUNNY   51  39  64 N23G31    30.10
PASCAGOULA     CLOUDY    49  39  68 N21G33    30.09R
STENNIS ARPT*  MOSUNNY   54  37  54 N23G31    30.12S

$$

COASTAL OBSERVATIONS
LAKE AND NEARSHORE STATIONS

STATION/POSITION TIME  TEMP    WIND        PRES    WAVE
                       AIR SEA DIR/SP/G            HT/PER
                 (UTC) (F)     (DEG/KT/KT) (MB)    (FT/S)
PASCAGOULA       1700   48     350/ 17/ 23 1018.1
WAVELAND YACHT   1700   49 65  350/ 26/ 29 1018.8
GRAND ISLE       1700   51 67  350/ 18/ 27 1020.2
SOUTHWEST PASS   1700   53 58  360/ 28/ 31 1019.6
NEW CANAL        1700   50 65  350/ 21/ 28 1020.9
SHELL BEACH      1700   48 64  350/ 22/ 29 1019.9

OFFSHORE STATIONS

STATION/POSITION TIME  TEMP    WIND        PRES    WAVE
                       AIR SEA DIR/SP/G            HT/PER
                 (UTC) (F)     (DEG/KT/KT) (MB)    (FT/S)
64 S DAUPHIN ISL 1700   54 67  330/ 29     1017.1

$$




USA.gov is the U.S. government's official web portal to all federal, state and local government web resources and services.